timestamp,surface_pressure_avg,surface_temp_avg,battery_voltage,lat,long
2021-11-18 00:09:01+00:00,350.5146,9.09,12.65,47.84626,-54.09684
2021-11-18 00:19:00+00:00,340.8047,9.06,12.65,47.84626,-54.09684
2021-11-18 00:29:00+00:00,330.0046,9.09,12.65,47.84626,-54.09684
2021-11-18 00:39:00+00:00,332.93300000000005,9.1,12.65,47.84626,-54.09684
2021-11-18 00:49:00+00:00,332.4563,9.1,12.65,47.84626,-54.09684
2021-11-18 00:59:00+00:00,319.143,9.1,12.65,47.84626,-54.09684
2021-11-18 01:09:00+00:00,312.4847,9.1,12.65,47.84626,-54.09684
2021-11-18 01:19:01+00:00,315.3697,9.1,12.65,47.84626,-54.09684
2021-11-18 01:29:01+00:00,306.8563,9.1,12.65,47.84626,-54.09684
2021-11-18 01:39:01+00:00,290.843,9.1,12.65,47.84626,-54.09684
2021-11-18 01:49:01+00:00,288.6479,9.1,12.65,47.84626,-54.09684
2021-11-18 01:59:01+00:00,286.5348,9.1,12.65,47.84626,-54.09684
2021-11-18 02:09:01+00:00,274.5214,9.1,12.65,47.84626,-54.09684
2021-11-18 02:19:00+00:00,265.4798,9.06,12.65,47.84626,-54.09684
2021-11-18 02:29:00+00:00,262.6981,9.08,12.65,47.84626,-54.09684
2021-11-18 02:39:00+00:00,255.1364,9.06,12.65,47.84626,-54.09684
2021-11-18 02:49:00+00:00,244.7781,9.08,12.65,47.84626,-54.09684
2021-11-18 02:59:00+00:00,241.4264,9.06,12.65,47.84626,-54.09684
2021-11-18 03:09:00+00:00,239.0831,9.09,12.65,47.84626,-54.09684
2021-11-18 03:19:00+00:00,233.1097,9.09,12.65,47.84626,-54.09684
2021-11-18 03:29:00+00:00,228.0931,9.1,12.65,47.84626,-54.09684
2021-11-18 03:39:00+00:00,227.7631,9.1,12.65,47.84626,-54.09684
2021-11-18 03:49:00+00:00,223.4981,9.1,12.65,47.84626,-54.09684
2021-11-18 03:59:00+00:00,220.3764,9.1,12.65,47.84626,-54.09684
2021-11-18 04:09:00+00:00,220.8348,9.1,12.65,47.84626,-54.09684
2021-11-18 04:19:00+00:00,220.7465,9.1,12.57,47.84626,-54.09684
2021-11-18 04:29:00+00:00,219.2881,9.1,12.57,47.84626,-54.09684
2021-11-18 04:39:00+00:00,218.5898,9.1,12.57,47.84626,-54.09684
2021-11-18 04:49:00+00:00,219.1981,9.1,12.57,47.84626,-54.09684
2021-11-18 04:59:00+00:00,223.1982,9.1,12.57,47.84626,-54.09684
2021-11-18 05:09:00+00:00,227.8148,9.08,12.57,47.84626,-54.09684
2021-11-18 05:19:01+00:00,228.8997,9.08,12.57,47.84626,-54.09684
2021-11-18 05:29:01+00:00,231.9448,9.09,12.57,47.84626,-54.09684
2021-11-18 05:39:01+00:00,240.8481,9.09,12.57,47.84626,-54.09684
2021-11-18 05:49:01+00:00,246.2798,9.1,12.57,47.84626,-54.09684
2021-11-18 05:59:01+00:00,244.5881,9.1,12.57,47.84626,-54.09684
2021-11-18 06:09:01+00:00,246.9231,9.09,12.57,47.84626,-54.09684
2021-11-18 06:19:00+00:00,254.518,9.1,12.57,47.84626,-54.09684
2021-11-18 06:29:00+00:00,257.693,9.1,12.57,47.84626,-54.09684
2021-11-18 06:39:00+00:00,258.518,9.1,12.57,47.84626,-54.09684
2021-11-18 06:49:00+00:00,266.078,9.1,12.57,47.84626,-54.09684
2021-11-18 06:59:00+00:00,271.5814,9.1,12.57,47.84626,-54.09684
2021-11-18 07:09:00+00:00,274.3497,9.1,12.57,47.84626,-54.09684
2021-11-18 07:19:00+00:00,276.9297,9.1,12.57,47.84626,-54.09684
2021-11-18 07:29:00+00:00,280.6331,9.1,12.57,47.84626,-54.09684
2021-11-18 07:39:00+00:00,283.0197,9.1,12.57,47.84626,-54.09684
2021-11-18 07:49:00+00:00,289.4497,9.1,12.57,47.84626,-54.09684
2021-11-18 07:59:00+00:00,294.83799999999997,9.1,12.57,47.84626,-54.09684
2021-11-18 08:09:00+00:00,299.4297,9.1,12.57,47.84626,-54.09684
2021-11-18 08:19:01+00:00,303.33299999999997,9.1,12.57,47.84626,-54.09684
2021-11-18 08:29:01+00:00,311.4514,9.1,12.57,47.84626,-54.09684
2021-11-18 08:39:01+00:00,314.3229,9.1,12.57,47.84626,-54.09684
2021-11-18 08:49:01+00:00,317.6514,9.1,12.57,47.84626,-54.09684
2021-11-18 08:59:01+00:00,324.448,9.1,12.57,47.84626,-54.09684
2021-11-18 09:09:01+00:00,334.2764,9.1,12.57,47.84626,-54.09684
2021-11-18 09:19:00+00:00,338.5313,9.1,12.57,47.84626,-54.09684
2021-11-18 09:29:00+00:00,340.0831,9.1,12.57,47.84626,-54.09684
2021-11-18 09:39:00+00:00,348.9913,9.1,12.57,47.84626,-54.09684
2021-11-18 09:49:00+00:00,358.5796,9.1,12.57,47.84626,-54.09684
2021-11-18 09:59:00+00:00,364.0763,9.1,12.57,47.84626,-54.09684
2021-11-18 10:09:00+00:00,367.853,9.1,12.57,47.84626,-54.09684
2021-11-18 10:19:00+00:00,371.2747,9.1,12.57,47.84626,-54.09684
2021-11-18 10:29:00+00:00,372.8263,9.11,12.57,47.84626,-54.09684
2021-11-18 10:39:00+00:00,374.8695,9.11,12.57,47.84626,-54.09684
2021-11-18 10:49:00+00:00,376.4246,9.13,12.57,47.84626,-54.09684
2021-11-18 10:59:00+00:00,374.5996,9.1,12.57,47.84626,-54.09684
2021-11-18 11:09:00+00:00,371.5062,9.1,12.57,47.84626,-54.09684
2021-11-18 11:19:01+00:00,373.8479,9.1,12.81,47.84626,-54.09684
2021-11-18 11:29:01+00:00,374.4479,9.1,12.81,47.84626,-54.09684
2021-11-18 11:39:01+00:00,370.4796,9.1,12.81,47.84626,-54.09684
2021-11-18 11:49:01+00:00,370.1796,9.0,12.81,47.84626,-54.09684
2021-11-18 11:59:01+00:00,369.4896,8.98,12.81,47.84626,-54.09684
2021-11-18 12:09:01+00:00,365.5179,8.92,12.81,47.84626,-54.09684
2021-11-18 12:19:00+00:00,359.8396,8.9,12.73,47.84626,-54.09684
2021-11-18 12:29:00+00:00,355.6229,8.9,12.73,47.84626,-54.09684
2021-11-18 12:39:00+00:00,355.7762,8.9,12.73,47.84626,-54.09684
2021-11-18 12:49:00+00:00,351.2612,8.8,12.73,47.84626,-54.09684
2021-11-18 12:59:00+00:00,344.153,8.82,12.73,47.84626,-54.09684
2021-11-18 13:09:00+00:00,336.1646,8.8,12.73,47.84626,-54.09684
2021-11-18 13:19:01+00:00,329.3096,8.8,13.05,47.84626,-54.09684
2021-11-18 13:29:01+00:00,320.898,8.8,13.05,47.84626,-54.09684
2021-11-18 13:39:01+00:00,310.9846,8.71,13.05,47.84626,-54.09684
2021-11-18 13:49:01+00:00,307.5864,8.7,13.05,47.84626,-54.09684
2021-11-18 13:59:01+00:00,305.4464,8.7,13.05,47.84626,-54.09684
2021-11-18 14:09:01+00:00,297.8698,8.7,13.05,47.84626,-54.09684
2021-11-18 14:19:00+00:00,287.0697,8.6,14.08,47.84626,-54.09684
2021-11-18 14:29:00+00:00,278.2464,8.82,14.08,47.84626,-54.09684
2021-11-18 14:39:00+00:00,270.3414,8.81,14.08,47.84626,-54.09684
2021-11-18 14:49:00+00:00,259.1297,8.61,14.08,47.84626,-54.09684
2021-11-18 14:59:00+00:00,250.548,8.74,14.08,47.84626,-54.09684
2021-11-18 15:09:00+00:00,244.0431,8.9,14.08,47.84626,-54.09684
2021-11-18 15:19:00+00:00,233.6948,8.7,14.16,47.84626,-54.09684
2021-11-18 15:29:00+00:00,222.2897,8.8,14.16,47.84626,-54.09684
2021-11-18 15:39:00+00:00,214.8814,8.83,14.16,47.84626,-54.09684
2021-11-18 15:49:00+00:00,209.8548,8.9,14.16,47.84626,-54.09684
2021-11-18 15:59:00+00:00,203.8881,8.9,14.16,47.84626,-54.09684
2021-11-18 16:09:00+00:00,202.3348,8.9,14.16,47.84626,-54.09684
2021-11-18 16:19:01+00:00,201.1215,8.9,14.48,47.84626,-54.09684
2021-11-18 16:29:01+00:00,191.6081,8.9,14.48,47.84626,-54.09684
2021-11-18 16:39:01+00:00,184.5148,8.9,14.48,47.84626,-54.09684
2021-11-18 16:49:01+00:00,185.0782,9.0,14.48,47.84626,-54.09684
2021-11-18 16:59:01+00:00,184.3898,9.0,14.48,47.84626,-54.09684
2021-11-18 17:09:01+00:00,182.1881,8.8,14.48,47.84626,-54.09684
2021-11-18 17:19:00+00:00,183.6731,8.75,14.64,47.84626,-54.09684
2021-11-18 17:29:00+00:00,187.6481,8.73,14.64,47.84626,-54.09684
2021-11-18 17:39:00+00:00,187.9648,8.7,14.64,47.84626,-54.09684
2021-11-18 17:49:00+00:00,188.3064,8.7,14.64,47.84626,-54.09684
2021-11-18 17:59:00+00:00,192.9898,8.7,14.64,47.84626,-54.09684
2021-11-18 18:09:00+00:00,199.9131,8.72,14.64,47.84626,-54.09684
2021-11-18 18:19:00+00:00,202.3365,8.7,14.48,47.84626,-54.09684
2021-11-18 18:29:00+00:00,203.0731,8.69,14.48,47.84626,-54.09684
2021-11-18 18:39:00+00:00,209.0565,8.6,14.48,47.84626,-54.09684
2021-11-18 18:49:00+00:00,212.4197,8.6,14.48,47.84626,-54.09684
2021-11-18 18:59:00+00:00,214.5148,8.59,14.48,47.84626,-54.09684
2021-11-18 19:09:00+00:00,219.3465,8.6,14.48,47.84626,-54.09684
2021-11-18 19:19:00+00:00,224.2615,8.6,14.08,47.84626,-54.09684
2021-11-18 19:29:00+00:00,223.5731,8.6,14.08,47.84626,-54.09684
2021-11-18 19:39:00+00:00,226.6731,8.59,14.08,47.84626,-54.09684
2021-11-18 19:49:00+00:00,234.2464,8.57,14.08,47.84626,-54.09684
2021-11-18 19:59:00+00:00,240.0581,8.57,14.08,47.84626,-54.09684
2021-11-18 20:09:00+00:00,245.9131,8.5,14.08,47.84626,-54.09684
2021-11-18 20:19:00+00:00,255.1264,8.59,13.53,47.84626,-54.09684
2021-11-18 20:29:00+00:00,263.3597,8.81,13.53,47.84626,-54.09684
2021-11-18 20:39:00+00:00,266.7881,9.1,13.53,47.84626,-54.09684
2021-11-18 20:49:00+00:00,271.6464,9.13,13.53,47.84626,-54.09684
2021-11-18 20:59:00+00:00,280.028,9.19,13.53,47.84626,-54.09684
2021-11-18 21:09:00+00:00,285.353,9.2,13.53,47.84626,-54.09684
2021-11-18 21:19:00+00:00,288.3597,9.19,13.13,47.84626,-54.09684
2021-11-18 21:29:00+00:00,292.778,9.18,13.13,47.84626,-54.09684
2021-11-18 21:39:00+00:00,298.473,9.18,13.13,47.84626,-54.09684
2021-11-18 21:49:00+00:00,303.5164,9.19,13.13,47.84626,-54.09684
2021-11-18 21:59:00+00:00,307.808,9.2,13.13,47.84626,-54.09684
2021-11-18 22:09:00+00:00,316.1647,9.19,13.13,47.84626,-54.09684
2021-11-18 22:19:00+00:00,323.3697,9.18,12.81,47.84626,-54.09684
2021-11-18 22:29:00+00:00,325.6896,9.17,12.81,47.84626,-54.09684
2021-11-18 22:39:00+00:00,325.1146,9.1,12.81,47.84626,-54.09684
2021-11-18 22:49:00+00:00,328.4513,9.1,12.81,47.84626,-54.09684
2021-11-18 22:59:00+00:00,331.9613,9.1,12.81,47.84626,-54.09684
2021-11-18 23:09:00+00:00,334.6813,9.1,12.81,47.84626,-54.09684
2021-11-18 23:19:00+00:00,335.983,9.1,12.65,47.84626,-54.09684
2021-11-18 23:29:00+00:00,335.8513,9.1,12.65,47.84626,-54.09684
2021-11-18 23:39:00+00:00,334.2097,9.1,12.65,47.84626,-54.09684
2021-11-18 23:49:00+00:00,336.3830000000001,9.1,12.65,47.84626,-54.09684
2021-11-18 23:59:00+00:00,334.7030000000001,9.1,12.65,47.84626,-54.09684
